FW1480 Weather Reports


Display with metric or nautical units.
time (UTC)temp
F
wind
direction
speed
MPH
gust
MPH
rain 1hr
in
rain 24hr
in
rain mn
in
humidity
%
barometer
mb
20260508053830 47 131 0.0 0.0 0.00 0.06 0.00 63 1011.3
20260508052330 46 149 0.0 0.0 0.00 0.06 0.00 57 1011.1
20260508051830 46 143 0.0 0.0 0.00 0.06 0.00 60 1011.0
20260508051329 46 231 0.0 1.0 0.00 0.06 0.00 60 1011.0
20260508050830 46 41 0.0 1.0 0.00 0.06 0.00 59 1010.9
20260508050330 45 117 0.0 1.0 0.00 0.06 0.00 65 1010.9
20260508045829 45 141 0.0 0.0 0.00 0.06 0.00 65 1011.0
20260508045328 45 202 0.0 0.0 0.00 0.06 0.00 65 1011.0
20260508044828 45 202 0.0 0.0 0.00 0.06 0.00 65 1011.0
20260508044329 45 63 0.0 0.0 0.00 0.06 0.00 62 1010.9
20260508042829 46 63 0.0 0.0 0.00 0.06 0.00 60 1010.9
20260508042328 46 46 0.0 0.0 0.00 0.06 0.00 62 1010.9
20260508041829 46 46 0.0 0.0 0.00 0.06 0.00 62 1011.0
20260508041328 46 46 0.0 0.0 0.00 0.06 0.00 62 1011.0
20260508040830 46 46 0.0 0.0 0.00 0.06 0.00 62 1011.1
20260508035825 47 46 0.0 0.0 0.00 0.06 0.06 59 1011.1
20260508035323 47 62 0.0 0.0 0.00 0.06 0.06 57 1011.0
20260508034820 47 70 0.0 0.0 0.00 0.06 0.06 62 1011.1
20260508034320 47 52 0.0 0.0 0.00 0.06 0.06 64 1011.1
20260508033820 47 53 0.0 0.0 0.00 0.06 0.06 62 1011.1
20260508033319 46 36 0.0 0.0 0.00 0.06 0.06 64 1011.2
20260508032818 45 33 0.0 0.0 0.00 0.06 0.06 68 1011.2
20260508032319 45 31 0.0 0.0 0.00 0.06 0.06 69 1011.1
20260508031818 45 29 0.0 0.0 0.00 0.06 0.06 70 1011.2
20260508030318 45 28 0.0 0.0 0.00 0.06 0.06 69 1011.3
20260508025818 45 29 0.0 0.0 0.00 0.06 0.06 69 1011.4
20260508025319 45 29 0.0 0.0 0.00 0.06 0.06 67 1011.3
20260508024813 46 28 0.0 0.0 0.00 0.06 0.06 66 1011.3
20260508024307 46 28 0.0 0.0 0.00 0.06 0.06 66 1011.3
20260508023801 46 28 0.0 0.0 0.00 0.06 0.06 66 1011.2
20260508023254 46 28 0.0 0.0 0.00 0.06 0.06 65 1011.2
20260508022748 46 29 0.0 0.0 0.00 0.06 0.06 67 1011.2
20260508022242 46 29 0.0 0.0 0.00 0.06 0.06 67 1011.2
20260508021741 46 23 0.0 0.0 0.00 0.06 0.06 64 1011.1
20260508021227 46 22 0.0 0.0 0.00 0.06 0.06 64 1011.1
20260508020721 46 22 0.0 0.0 0.00 0.06 0.06 64 1011.1
20260508020215 46 22 0.0 0.0 0.00 0.06 0.06 65 1011.0
20260508015709 46 23 0.0 0.0 0.00 0.06 0.06 64 1011.0
20260508014705 46 20 0.0 0.0 0.00 0.06 0.06 65 1010.8
20260508014205 46 19 0.0 0.0 0.00 0.06 0.06 66 1010.7
20260508013701 46 19 0.0 0.0 0.00 0.06 0.06 66 1010.7
20260508013201 46 18 0.0 0.0 0.00 0.06 0.06 67 1010.7
20260508012702 46 18 0.0 0.0 0.00 0.07 0.06 67 1010.7
20260508012201 47 18 0.0 0.0 0.00 0.07 0.06 67 1010.5
20260508011703 47 18 0.0 0.0 0.00 0.07 0.06 67 1010.7
20260508011201 47 18 0.0 0.0 0.00 0.07 0.06 66 1010.7
20260508010701 47 18 0.0 0.0 0.00 0.07 0.06 65 1010.7
20260508010158 47 18 0.0 0.0 0.00 0.07 0.06 65 1010.6
20260508005659 48 15 0.0 0.0 0.00 0.07 0.06 65 1010.6
20260508005158 48 15 0.0 0.0 0.00 0.07 0.06 64 1010.4
20260508004701 49 14 0.0 0.0 0.00 0.07 0.06 65 1010.5
20260508004158 49 328 0.0 0.0 0.00 0.07 0.06 63 1010.5
20260508002655 50 289 0.0 0.0 0.00 0.07 0.06 59 1010.1
20260508002152 50 289 0.0 0.0 0.00 0.07 0.06 59 1010.0
20260508001652 51 289 0.0 0.0 0.00 0.07 0.06 58 1009.8
20260508001153 51 289 0.0 0.0 0.00 0.07 0.06 58 1009.7
20260508000652 51 289 0.0 0.0 0.00 0.07 0.06 57 1009.7
20260507235651 52 289 0.0 0.0 0.00 0.07 0.06 56 1009.9
20260507235153 53 289 0.0 0.0 0.00 0.07 0.06 54 1009.8
20260507234651 53 289 0.0 0.0 0.00 0.07 0.06 54 1009.7
20260507234151 54 289 0.0 1.0 0.00 0.07 0.06 51 1009.6
20260507233653 54 289 0.0 1.0 0.00 0.07 0.06 52 1009.6
20260507233152 54 64 0.0 0.0 0.00 0.07 0.06 52 1009.7
20260507232653 55 58 0.0 0.0 0.00 0.07 0.06 47 1009.6
20260507232153 55 54 0.0 0.0 0.00 0.07 0.06 48 1009.6
20260507231151 55 146 0.0 0.0 0.00 0.07 0.06 47 1009.6
20260507230651 55 135 0.0 0.0 0.00 0.07 0.06 47 1009.6
20260507225651 56 224 0.0 0.0 0.00 0.07 0.06 45 1009.3
20260507225151 56 198 0.0 0.0 0.00 0.07 0.06 46 1009.5
20260507224649 57 269 0.0 0.0 0.00 0.07 0.06 44 1009.4
20260507224149 57 146 0.0 1.0 0.00 0.07 0.06 44 1009.4
20260507223649 57 344 0.0 5.0 0.00 0.07 0.06 42 1009.4
20260507223149 57 41 0.0 5.0 0.00 0.07 0.06 42 1009.4
20260507222647 58 84 0.0 6.0 0.00 0.07 0.06 45 1009.4
20260507222143 58 98 0.0 6.0 0.00 0.07 0.06 41 1009.4
20260507221642 58 294 0.0 2.0 0.00 0.07 0.06 43 1009.5
20260507221141 58 70 0.0 2.0 0.00 0.07 0.06 42 1009.5
20260507220641 58 131 0.0 3.0 0.00 0.07 0.06 44 1009.5
20260507220140 58 137 0.0 3.0 0.00 0.07 0.06 44 1009.6
20260507215640 58 133 0.0 1.0 0.00 0.07 0.06 44 1009.5
20260507215140 58 166 0.0 1.0 0.00 0.07 0.06 45 1009.6
20260507213622 58 146 0.0 2.0 0.00 0.07 0.06 44 1009.3
20260507213116 58 36 0.0 2.0 0.00 0.07 0.06 40 1009.3
20260507212610 59 203 0.0 7.0 0.00 0.07 0.06 43 1009.2
20260507212104 59 82 0.0 7.0 0.00 0.07 0.06 41 1009.2
20260507211558 59 298 0.0 3.0 0.00 0.07 0.06 44 1009.2
20260507211052 58 245 0.0 1.0 0.00 0.07 0.06 43 1009.2
20260507210546 58 120 0.0 1.0 0.00 0.07 0.06 45 1009.2
20260507205027 58 63 0.0 1.0 0.00 0.07 0.06 44 1009.2
20260507204522 58 290 0.0 3.0 0.00 0.07 0.06 41 1009.3
20260507203509 59 38 0.0 3.0 0.00 0.08 0.06 41 1008.9
20260507202458 58 145 0.0 4.0 0.00 0.09 0.06 44 1009.0
20260507201952 58 121 0.0 4.0 0.00 0.10 0.06 44 1009.1
20260507201446 59 127 0.0 6.0 0.00 0.11 0.06 42 1009.2
20260507200940 59 217 0.0 6.0 0.00 0.11 0.06 41 1008.9
20260507200434 59 124 0.0 4.0 0.00 0.12 0.06 42 1009.1
20260507195421 58 84 0.0 5.0 0.00 0.13 0.06 41 1009.2
20260507194916 59 124 0.0 5.0 0.00 0.13 0.06 41 1009.3
20260507194410 59 27 0.0 3.0 0.00 0.14 0.06 41 1009.1
20260507193904 59 243 0.0 3.0 0.00 0.14 0.06 42 1009.3
20260507193358 60 136 0.0 2.0 0.00 0.15 0.06 41 1009.4
20260507192852 60 31 0.0 7.0 0.00 0.15 0.06 44 1009.4
20260507192349 60 300 0.0 7.0 0.00 0.16 0.06 40 1009.3
20260507191849 60 120 0.0 6.0 0.00 0.16 0.06 42 1009.4
20260507191348 59 139 0.0 4.0 0.00 0.17 0.06 42 1009.4
20260507190350 59 278 0.0 5.0 0.00 0.17 0.06 44 1009.8
20260507185846 59 206 0.0 4.0 0.00 0.17 0.06 42 1009.8
20260507185345 59 71 0.0 4.0 0.00 0.17 0.06 44 1009.7
20260507184343 59 281 0.0 7.0 0.00 0.17 0.06 40 1009.8
20260507182340 59 340 0.0 3.0 0.00 0.17 0.06 42 1009.9
20260507181840 59 22 0.0 2.0 0.00 0.17 0.06 43 1010.0
20260507181339 59 139 0.0 5.0 0.00 0.17 0.06 42 1010.0
20260507180840 59 262 0.0 5.0 0.00 0.17 0.06 41 1010.0
20260507180332 59 131 0.0 2.0 0.00 0.17 0.06 40 1010.0
20260507175834 59 71 0.0 4.0 0.00 0.17 0.06 40 1010.1
20260507175333 59 246 0.0 4.0 0.00 0.17 0.06 41 1010.1
20260507174834 59 84 0.0 3.0 0.00 0.18 0.06 44 1010.1
20260507174333 58 157 0.0 3.0 0.00 0.18 0.06 41 1010.2
20260507173832 58 179 1.0 6.0 0.00 0.18 0.06 40 1010.4
20260507173332 59 252 1.0 7.0 0.00 0.18 0.06 40 1010.6
20260507172833 59 150 0.0 8.0 0.00 0.18 0.06 41 1010.7
20260507172332 59 75 0.0 8.0 0.00 0.18 0.06 41 1010.8
20260507171834 58 141 0.0 4.0 0.00 0.18 0.06 43 1010.9
20260507171333 58 112 0.0 4.0 0.00 0.18 0.06 42 1011.0
20260507170833 58 59 0.0 4.0 0.00 0.18 0.06 46 1010.9
20260507165832 58 96 0.0 5.0 0.00 0.19 0.06 42 1011.1
20260507165332 57 71 0.0 3.0 0.00 0.19 0.06 44 1011.3
20260507164833 57 107 0.0 8.0 0.00 0.20 0.06 43 1011.1
20260507164332 57 39 0.0 8.0 0.00 0.20 0.06 43 1011.2
20260507163834 57 90 0.0 3.0 0.00 0.20 0.06 41 1011.3
20260507163331 58 35 0.0 3.0 0.00 0.20 0.06 42 1011.3
20260507162824 57 143 0.0 9.0 0.00 0.20 0.06 46 1011.3
20260507162323 56 153 1.0 9.0 0.00 0.20 0.06 44 1011.2
20260507161822 57 359 0.0 5.0 0.00 0.20 0.06 45 1011.4
20260507161322 57 26 0.0 5.0 0.00 0.20 0.06 44 1011.6
20260507160319 56 137 1.0 7.0 0.00 0.20 0.06 47 1011.6
20260507155818 56 194 1.0 7.0 0.00 0.20 0.06 43 1011.7
20260507155317 56 356 1.0 7.0 0.00 0.20 0.06 44 1011.6
20260507154816 55 77 1.0 7.0 0.00 0.20 0.06 46 1011.7
20260507154317 55 35 0.0 5.0 0.00 0.20 0.06 48 1011.7
20260507153815 55 129 0.0 7.0 0.00 0.20 0.06 44 1011.9
20260507153315 55 162 1.0 7.0 0.00 0.20 0.06 48 1011.9
20260507152816 55 225 0.0 6.0 0.00 0.20 0.06 44 1012.1
20260507152312 55 132 0.0 4.0 0.00 0.20 0.06 47 1012.0
20260507151812 54 108 0.0 4.0 0.00 0.20 0.06 45 1012.0
20260507151313 54 239 0.0 4.0 0.00 0.20 0.06 47 1012.1
20260507150814 54 13 0.0 5.0 0.00 0.20 0.06 50 1012.3
20260507150315 54 113 0.0 6.0 0.00 0.20 0.06 48 1012.2
20260507145808 54 292 0.0 6.0 0.00 0.20 0.06 46 1012.1
20260507145306 54 162 0.0 2.0 0.00 0.20 0.06 52 1012.0
20260507144250 53 187 1.0 8.0 0.00 0.20 0.06 46 1012.1
20260507143744 53 335 1.0 8.0 0.00 0.20 0.06 49 1012.0
20260507142738 53 290 0.0 4.0 0.00 0.20 0.06 57 1012.0
20260507142239 52 94 0.0 6.0 0.00 0.20 0.06 53 1012.2
20260507141736 52 98 0.0 6.0 0.00 0.20 0.06 51 1012.2
20260507141237 52 84 1.0 7.0 0.00 0.20 0.06 54 1012.3
20260507140736 52 44 0.0 7.0 0.00 0.20 0.06 56 1012.4
20260507140235 52 134 0.0 4.0 0.00 0.20 0.06 58 1012.4
20260507135734 52 290 0.0 9.0 0.00 0.20 0.06 60 1012.2
20260507134734 52 347 0.0 3.0 0.00 0.20 0.06 66 1012.3
20260507134235 51 109 0.0 5.0 0.00 0.20 0.06 65 1012.2
20260507133735 51 141 0.0 5.0 0.00 0.20 0.06 71 1012.2
20260507133233 51 92 0.0 5.0 0.00 0.20 0.06 73 1012.2
20260507132733 50 30 0.0 5.0 0.00 0.20 0.06 77 1012.2
20260507132233 50 117 0.0 1.0 0.00 0.20 0.06 79 1012.1
20260507131734 49 151 0.0 0.0 0.00 0.20 0.06 82 1012.1
20260507131232 49 120 0.0 5.0 0.00 0.20 0.06 82 1012.2
20260507130733 48 195 0.0 5.0 0.00 0.20 0.06 82 1012.1
20260507130227 48 128 0.0 3.0 0.00 0.20 0.06 82 1012.1
20260507125721 49 142 0.0 2.0 0.00 0.20 0.06 86 1012.0
20260507125218 48 88 0.0 3.0 0.00 0.20 0.06 86 1011.9
20260507124221 0 0.0 0.0 0.00 0.20 0.06 1012.0
20260507123719 0 0.0 0.0 0.00 0.20 0.06 1012.1
20260507123217 0 0.0 0.0 0.00 0.20 0.06 1012.0
20260507122626 0 0.0 0.0 0.00 0.20 0.06 1012.1
20260507122121 0 0.0 0.0 0.00 0.20 0.06 1011.9
20260507121617 0 0.0 0.0 0.00 0.20 0.06 1012.1
20260507121025 0 0.0 0.0 0.00 0.20 0.06 1012.1
20260507120424 0 0.0 0.0 0.00 0.20 0.06 1012.1
20260507115927 0 0.0 0.0 0.00 0.20 0.06 1012.0
20260507114917 0 0.0 0.0 0.00 0.20 0.06 1011.9
20260507114413 0 0.0 0.0 0.00 0.20 0.06 1011.7
20260507113824 0 0.0 0.0 0.00 0.20 0.06 1011.9
20260507112819 0 0.0 0.0 0.00 0.20 0.06 1011.6
20260507112316 0 0.0 0.0 0.00 0.20 0.06 1011.6
20260507111813 0 0.0 0.0 0.00 0.20 0.06 1011.7
20260507111224 0 0.0 0.0 0.00 0.20 0.06 1011.5
20260507110215 0 0.0 0.0 0.00 0.20 0.06 1011.3
20260507105716 0 0.0 0.0 0.00 0.20 0.06 1011.4
20260507105117 0 0.0 0.0 0.00 0.20 0.06 1011.2
20260507104527 0 0.0 0.0 0.00 0.20 0.06 1011.1
20260507104025 0 0.0 0.0 0.00 0.20 0.06 1011.1
20260507103513 0 0.0 0.0 0.00 0.20 0.06 1011.1
20260507103013 0 0.0 0.0 0.00 0.20 0.06 1011.1
20260507102427 0 0.0 0.0 0.00 0.20 0.06 1011.0
20260507101923 0 0.0 0.0 0.00 0.20 0.06 1011.0
20260507101415 0 0.0 0.0 0.00 0.20 0.06 1010.9
20260507100911 0 0.0 0.0 0.00 0.20 0.06 1010.9
20260507100317 0 0.0 0.0 0.00 0.20 0.06 1010.8
20260507095312 0 0.0 0.0 0.00 0.20 0.06 1010.6
20260507094218 0 0.0 0.0 0.00 0.20 0.06 1010.6
20260507093714 0 0.0 0.0 0.00 0.20 0.06 1010.2
20260507093125 0 0.0 0.0 0.00 0.20 0.06 1010.5
20260507092620 0 0.0 0.0 0.00 0.20 0.06 1010.4
20260507092117 0 0.0 0.0 0.00 0.20 0.06 1010.4
20260507091612 0 0.0 0.0 0.00 0.20 0.06 1010.5
20260507091015 0 0.0 0.0 0.00 0.20 0.06 1010.5
20260507090423 0 0.0 0.0 0.00 0.20 0.06 1010.5
20260507084815 0 0.0 0.0 0.00 0.20 0.06 1010.5
20260507084227 0 0.0 0.0 0.00 0.20 0.06 1010.2
20260507083218 0 0.0 0.0 0.00 0.20 0.06 1010.2
20260507082718 0 0.0 0.0 0.00 0.20 0.06 1010.4
20260507082216 0 0.0 0.0 0.00 0.20 0.06 1010.2
20260507081624 0 0.0 0.0 0.00 0.20 0.06 1010.5
20260507081120 0 0.0 0.0 0.00 0.20 0.06 1010.3
20260507080616 0 0.0 0.0 0.00 0.20 0.06 1010.3
20260507080024 0 0.0 0.0 0.00 0.20 0.06 1010.5
20260507075512 0 0.0 0.0 0.00 0.20 0.06 1010.7
20260507074924 0 0.0 0.0 0.00 0.20 0.06 1010.7
20260507074410 0 0.0 0.0 0.01 0.20 0.06 1010.5
20260507073818 0 0.0 0.0 0.02 0.20 0.06 1010.3
20260507073316 0 0.0 0.0 0.03 0.20 0.06 1010.1
20260507072729 0 0.0 0.0 0.04 0.20 0.06 1010.7
20260507072227 0 0.0 0.0 0.04 0.20 0.06 1010.6
20260507071720 0 0.0 0.0 0.05 0.20 0.06 1010.7
20260507071218 0 0.0 0.0 0.05 0.20 0.06 1010.8
20260507070203 48 158 0.0 0.0 0.05 0.20 0.06 94 1010.4
20260507065654 48 158 0.0 0.0 0.06 0.20 0.06 94 1010.3
20260507065148 48 159 0.0 0.0 0.06 0.20 0.06 93 1010.3
20260507064641 49 159 0.0 0.0 0.05 0.19 0.05 93 1010.3
20260507064136 49 159 0.0 0.0 0.04 0.18 0.04 93 1010.3
20260507063630 49 159 0.0 0.0 0.04 0.18 0.04 93 1010.4
20260507063124 49 186 0.0 0.0 0.03 0.17 0.03 93 1010.4
20260507062111 49 343 0.0 0.0 0.02 0.16 0.02 92 1009.9
20260507061605 49 90 0.0 0.0 0.01 0.15 0.01 92 1009.9
20260507061100 49 90 0.0 0.0 0.01 0.15 0.01 91 1010.0
20260507060554 49 89 0.0 0.0 0.01 0.15 0.01 91 1009.9
20260507060048 49 82 0.0 0.0 0.01 0.15 0.01 91 1009.7
20260507055036 49 71 0.0 1.0 0.00 0.14 0.00 91 1009.8
20260507054530 49 71 0.0 1.0 0.00 0.14 0.00 90 1009.7